星链-32722 (STARLINK-32722)

导读 | 豆包AI

STARLINK-32722是美国SpaceX星链互联网星座的一颗卫星,于2024年12月29日发射入轨,属于星链项目大规模组网部署的组成部分。该卫星依托星链系统低轨卫星星座架构,旨在为全球提供高速低延迟的宽带互联网服务,尤其覆盖偏远地区与移动场景,是美国推进低轨卫星通信布局的一环。

基本信息
目录编号:
62450
目录名称:
STARLINK-32722
国际标识:
2024-251U
轨道中心:
EARTH
卫星名称:
星链-32722
卫星全名:
星链-32722 (STARLINK-32722)
卫星状态:
在轨 (已飞行486 天)
发射日期:
2024-12-29 UTC
国别 :
美国 (US)
星等 :
--
轨道信息
数据来源 国际轨道数据
星历时间: 2026-04-29T15:53:37+0800
15小时前
查看轨道信息
半长轴: 6853.366km
偏心率: 0.0001529
轨道倾角: 53.160°
近地点辐角 75.413°
升交点赤经 99.931°
平近点角 284.704°
近地点: 474.181km
远地点: 476.277km
周期: 94.106分钟
每日圈数: 15.301956
详细信息
固有亮度:
5
最大亮度:
2.5
卫星平台:
Starlink V1.0
覆盖范围:
全球
运营商:
太空探索技术公司
运营商所在国:
美国
制造商(研发单位):
太空探索技术公司
制造商所在国:
美国
使用方式:
暂无
卫星简介
Starlink 计划是 SpaceX 推出的全球卫星互联网项目,通过发射低轨道卫星,为全球尤其是偏远地区提供高速、低延迟的互联网服务。自 2019 年起,Starlink 已部署数千颗卫星,旨在缩小全球数字鸿沟,推动互联网普及。该项目还为军事、航空等行业提供通信支持,带来广泛经济效益。
2D轨道图
3D轨道图
轨道高度分析图
轨道倾角分析图
轨道综合分析图
查看轨道综合分析图